| time (UTC) | temp F | wind direction | speed knots | gust knots | rain 1hr in | rain 24hr in | rain mn in | humidity % | barometer mb |
| 20260504003457 | 88 | 210 | 1.7 | 4.3 | 0.00 | 0.00 | 0.00 | 36 | 1008.8 |
| 20260504002954 | 88 | 246 | 0.9 | 2.6 | 0.00 | 0.00 | 0.00 | 36 | 1008.7 |
| 20260504002451 | 88 | 237 | 1.7 | 2.6 | 0.00 | 0.00 | 0.00 | 36 | 1009.0 |
| 20260504001948 | 89 | 204 | 0.9 | 1.7 | 0.00 | 0.00 | 0.00 | 35 | 1009.1 |
| 20260504001446 | 89 | 192 | 2.6 | 3.5 | 0.00 | 0.00 | 0.00 | 34 | 1008.8 |
| 20260504000942 | 89 | 192 | 0.0 | 4.3 | 0.00 | 0.00 | 0.00 | 34 | 1008.7 |
| 20260504000439 | 89 | 187 | 0.0 | 1.7 | 0.00 | 0.00 | 0.00 | 34 | 1009.0 |
| 20260503235936 | 89 | 140 | 1.7 | 2.6 | 0.00 | 0.00 | 0.00 | 35 | 1009.2 |
| 20260503235434 | 88 | 206 | 0.9 | 1.7 | 0.00 | 0.00 | 0.00 | 35 | 1009.0 |
| 20260503234931 | 88 | 192 | 0.9 | 3.5 | 0.00 | 0.00 | 0.00 | 35 | 1009.1 |
| 20260503234429 | 88 | 204 | 0.9 | 1.7 | 0.00 | 0.00 | 0.00 | 36 | 1009.2 |
| 20260503233927 | 88 | 258 | 0.0 | 3.5 | 0.00 | 0.00 | 0.00 | 35 | 1009.2 |
| 20260503233423 | 88 | 121 | 1.7 | 2.6 | 0.00 | 0.00 | 0.00 | 34 | 1009.3 |
| 20260503232919 | 88 | 181 | 3.5 | 3.5 | 0.00 | 0.00 | 0.00 | 34 | 1009.2 |
| 20260503232416 | 88 | 133 | 1.7 | 2.6 | 0.00 | 0.00 | 0.00 | 36 | 1009.3 |
| 20260503231914 | 88 | 267 | 0.9 | 2.6 | 0.00 | 0.00 | 0.00 | 36 | 1009.3 |
| 20260503231411 | 88 | 180 | 0.9 | 2.6 | 0.00 | 0.00 | 0.00 | 37 | 1009.5 |
| 20260503230908 | 88 | 102 | 1.7 | 4.3 | 0.00 | 0.00 | 0.00 | 33 | 1009.5 |
| 20260503230404 | 88 | 210 | 0.0 | 3.5 | 0.00 | 0.00 | 0.00 | 37 | 1009.7 |
| 20260503225902 | 88 | 227 | 0.9 | 2.6 | 0.00 | 0.00 | 0.00 | 38 | 1009.7 |
| 20260503225358 | 88 | 44 | 1.7 | 2.6 | 0.00 | 0.00 | 0.00 | 35 | 1009.9 |
| 20260503224854 | 88 | 123 | 0.9 | 3.5 | 0.00 | 0.00 | 0.00 | 37 | 1009.7 |
| 20260503224351 | 87 | 173 | 0.0 | 4.3 | 0.00 | 0.00 | 0.00 | 36 | 1009.9 |
| 20260503223849 | 87 | 135 | 0.9 | 5.2 | 0.00 | 0.00 | 0.00 | 36 | 1010.0 |
| 20260503223347 | 87 | 185 | 1.7 | 4.3 | 0.00 | 0.00 | 0.00 | 37 | 1010.0 |
| 20260503222842 | 87 | 237 | 2.6 | 4.3 | 0.00 | 0.00 | 0.00 | 36 | 1010.2 |
| 20260503222341 | 87 | 97 | 1.7 | 2.6 | 0.00 | 0.00 | 0.00 | 36 | 1010.5 |
| 20260503221838 | 87 | 108 | 0.0 | 2.6 | 0.00 | 0.00 | 0.00 | 37 | 1010.3 |
| 20260503221337 | 87 | 121 | 3.5 | 4.3 | 0.00 | 0.00 | 0.00 | 36 | 1010.3 |
| 20260503220832 | 87 | 185 | 0.0 | 3.5 | 0.00 | 0.00 | 0.00 | 36 | 1010.4 |
| 20260503220330 | 87 | 192 | 2.6 | 3.5 | 0.00 | 0.00 | 0.00 | 34 | 1010.6 |
| 20260503215826 | 86 | 186 | 0.9 | 3.5 | 0.00 | 0.00 | 0.00 | 37 | 1010.8 |
| 20260503215324 | 86 | 192 | 2.6 | 3.5 | 0.00 | 0.00 | 0.00 | 37 | 1010.7 |
| 20260503214821 | 86 | 142 | 2.6 | 3.5 | 0.00 | 0.00 | 0.00 | 34 | 1010.9 |
| 20260503214318 | 86 | 102 | 0.0 | 2.6 | 0.00 | 0.00 | 0.00 | 37 | 1010.9 |
| 20260503213816 | 86 | 174 | 0.9 | 3.5 | 0.00 | 0.00 | 0.00 | 37 | 1010.7 |
| 20260503213313 | 86 | 159 | 1.7 | 4.3 | 0.00 | 0.00 | 0.00 | 36 | 1011.1 |
| 20260503212810 | 85 | 195 | 2.6 | 3.5 | 0.00 | 0.00 | 0.00 | 37 | 1010.8 |
| 20260503212308 | 85 | 136 | 2.6 | 3.5 | 0.00 | 0.00 | 0.00 | 38 | 1011.2 |
| 20260503211805 | 85 | 89 | 1.7 | 3.5 | 0.00 | 0.00 | 0.00 | 37 | 1011.0 |
| 20260503211302 | 85 | 110 | 2.6 | 4.3 | 0.00 | 0.00 | 0.00 | 37 | 1011.1 |
| 20260503210801 | 84 | 195 | 1.7 | 2.6 | 0.00 | 0.00 | 0.00 | 36 | 1011.4 |
| 20260503210259 | 84 | 135 | 0.9 | 3.5 | 0.00 | 0.00 | 0.00 | 38 | 1011.1 |
| 20260503205754 | 84 | 127 | 1.7 | 5.2 | 0.00 | 0.00 | 0.00 | 37 | 1011.2 |
| 20260503205251 | 84 | 100 | 4.3 | 5.2 | 0.00 | 0.00 | 0.00 | 35 | 1011.3 |
| 20260503204748 | 84 | 138 | 2.6 | 4.3 | 0.00 | 0.00 | 0.00 | 40 | 1011.4 |
| 20260503204245 | 84 | 170 | 1.7 | 3.5 | 0.00 | 0.00 | 0.00 | 42 | 1011.5 |
| 20260503203743 | 83 | 129 | 3.5 | 3.5 | 0.00 | 0.00 | 0.00 | 39 | 1011.5 |
| 20260503203240 | 82 | 240 | 1.7 | 4.3 | 0.00 | 0.00 | 0.00 | 39 | 1011.6 |
| 20260503202737 | 83 | 38 | 0.0 | 4.3 | 0.00 | 0.00 | 0.00 | 38 | 1011.6 |
| 20260503202235 | 83 | 192 | 0.9 | 3.5 | 0.00 | 0.00 | 0.00 | 39 | 1011.8 |
| 20260503201732 | 83 | 180 | 1.7 | 4.3 | 0.00 | 0.00 | 0.00 | 39 | 1012.1 |
| 20260503201230 | 82 | 171 | 0.0 | 4.3 | 0.00 | 0.00 | 0.00 | 41 | 1012.0 |
| 20260503200726 | 82 | 122 | 1.7 | 4.3 | 0.00 | 0.00 | 0.00 | 40 | 1012.1 |
| 20260503200222 | 82 | 126 | 1.7 | 6.1 | 0.00 | 0.00 | 0.00 | 37 | 1012.2 |
| 20260503195719 | 82 | 73 | 1.7 | 6.1 | 0.00 | 0.00 | 0.00 | 41 | 1012.3 |
| 20260503195216 | 81 | 117 | 3.5 | 4.3 | 0.00 | 0.00 | 0.00 | 40 | 1012.3 |
| 20260503194714 | 81 | 117 | 1.7 | 3.5 | 0.00 | 0.00 | 0.00 | 39 | 1012.3 |
| 20260503194210 | 81 | 141 | 0.0 | 3.5 | 0.00 | 0.00 | 0.00 | 43 | 1012.3 |
| 20260503193706 | 81 | 124 | 2.6 | 4.3 | 0.00 | 0.00 | 0.00 | 41 | 1012.4 |
| 20260503193202 | 81 | 122 | 0.0 | 3.5 | 0.00 | 0.00 | 0.00 | 43 | 1012.4 |
| 20260503192657 | 80 | 144 | 1.7 | 4.3 | 0.00 | 0.00 | 0.00 | 39 | 1012.4 |
| 20260503192153 | 80 | 192 | 0.9 | 6.1 | 0.00 | 0.00 | 0.00 | 39 | 1012.5 |
| 20260503191649 | 79 | 109 | 3.5 | 4.3 | 0.00 | 0.00 | 0.00 | 42 | 1012.7 |
| 20260503191147 | 79 | 97 | 3.5 | 5.2 | 0.00 | 0.00 | 0.00 | 41 | 1012.7 |
| 20260503190644 | 79 | 123 | 6.1 | 6.1 | 0.00 | 0.00 | 0.00 | 40 | 1012.7 |
| 20260503190141 | 79 | 163 | 0.9 | 4.3 | 0.00 | 0.00 | 0.00 | 42 | 1012.8 |
| 20260503185637 | 79 | 157 | 0.9 | 3.5 | 0.00 | 0.00 | 0.00 | 44 | 1012.7 |
| 20260503185132 | 78 | 181 | 0.0 | 3.5 | 0.00 | 0.00 | 0.00 | 44 | 1012.9 |
| 20260503184628 | 78 | 127 | 2.6 | 3.5 | 0.00 | 0.00 | 0.00 | 45 | 1012.9 |
| 20260503184125 | 77 | 225 | 1.7 | 3.5 | 0.00 | 0.00 | 0.00 | 44 | 1013.1 |
| 20260503183621 | 77 | 210 | 0.9 | 4.3 | 0.00 | 0.00 | 0.00 | 45 | 1012.9 |
| 20260503183118 | 77 | 122 | 4.3 | 4.3 | 0.00 | 0.00 | 0.00 | 43 | 1013.1 |
| 20260503182617 | 77 | 159 | 1.7 | 3.5 | 0.00 | 0.00 | 0.00 | 47 | 1013.1 |
| 20260503182115 | 77 | 99 | 2.6 | 3.5 | 0.00 | 0.00 | 0.00 | 50 | 1013.2 |
| 20260503181611 | 76 | 192 | 1.7 | 3.5 | 0.00 | 0.00 | 0.00 | 50 | 1013.2 |
| 20260503181108 | 75 | 224 | 2.6 | 4.3 | 0.00 | 0.00 | 0.00 | 49 | 1013.2 |
| 20260503180605 | 75 | 125 | 0.0 | 4.3 | 0.00 | 0.00 | 0.00 | 49 | 1013.3 |
| 20260503180103 | 74 | 89 | 0.9 | 4.3 | 0.00 | 0.00 | 0.00 | 47 | 1013.3 |
| 20260503175559 | 74 | 199 | 2.6 | 3.5 | 0.00 | 0.00 | 0.00 | 49 | 1013.5 |
| 20260503175057 | 74 | 139 | 0.0 | 2.6 | 0.00 | 0.00 | 0.00 | 47 | 1013.4 |
| 20260503174553 | 73 | 85 | 2.6 | 3.5 | 0.00 | 0.00 | 0.00 | 48 | 1013.5 |
| 20260503174050 | 73 | 156 | 1.7 | 4.3 | 0.00 | 0.00 | 0.00 | 49 | 1013.6 |
| 20260503173545 | 73 | 80 | 1.7 | 4.3 | 0.00 | 0.00 | 0.00 | 48 | 1013.5 |
| 20260503173042 | 72 | 185 | 0.0 | 2.6 | 0.00 | 0.00 | 0.00 | 50 | 1013.6 |
| 20260503172539 | 72 | 155 | 0.0 | 6.1 | 0.00 | 0.00 | 0.00 | 49 | 1013.4 |
| 20260503172036 | 71 | 121 | 1.7 | 6.1 | 0.00 | 0.00 | 0.00 | 51 | 1013.6 |
| 20260503171533 | 71 | 99 | 3.5 | 4.3 | 0.00 | 0.00 | 0.00 | 53 | 1013.7 |
| 20260503171030 | 71 | 282 | 0.0 | 5.2 | 0.00 | 0.00 | 0.00 | 55 | 1013.7 |
| 20260503170526 | 70 | 126 | 0.0 | 3.5 | 0.00 | 0.00 | 0.00 | 55 | 1013.6 |
| 20260503150919 | 55 | 97 | 1.7 | 1.7 | 0.00 | 0.00 | 0.00 | 85 | 1014.3 |
| 20260503150415 | 55 | 102 | 0.0 | 0.9 | 0.00 | 0.00 | 0.00 | 86 | 1014.2 |
| 20260503131308 | 50 | 41 | 0.0 | 0.9 | 0.00 | 0.00 | 0.00 | 92 | 1013.9 |
| 20260503130806 | 50 | 12 | 0.9 | 0.9 | 0.00 | 0.00 | 0.00 | 92 | 1014.1 |
| 20260503130303 | 50 | 5 | 0.0 | 0.0 | 0.00 | 0.00 | 0.00 | 92 | 1013.9 |
| 20260503110657 | 51 | 5 | 0.0 | 0.0 | 0.00 | 0.00 | 0.00 | 91 | 1014.0 |
| 20260503110154 | 51 | 5 | 0.0 | 0.0 | 0.00 | 0.00 | 0.00 | 90 | 1014.5 |
| 20260503100120 | 51 | 19 | 0.0 | 0.0 | 0.00 | 0.00 | 0.00 | 89 | 1014.2 |
| 20260503081510 | 52 | 19 | 0.0 | 0.9 | 0.00 | 0.00 | 0.00 | 87 | 1014.9 |
| 20260503081007 | 52 | 358 | 0.0 | 0.9 | 0.00 | 0.00 | 0.00 | 86 | 1014.5 |
| 20260503080503 | 52 | 343 | 0.9 | 0.9 | 0.00 | 0.00 | 0.00 | 86 | 1014.7 |
| 20260503072940 | 53 | 306 | 0.0 | 0.0 | 0.00 | 0.00 | 0.00 | 84 | 1014.6 |
| 20260503072437 | 53 | 312 | 0.0 | 0.0 | 0.00 | 0.00 | 0.00 | 85 | 1014.7 |
| 20260503071934 | 53 | 312 | 0.9 | 0.9 | 0.00 | 0.00 | 0.00 | 85 | 1014.4 |
| 20260503071431 | 53 | 282 | 0.0 | 0.0 | 0.00 | 0.00 | 0.00 | 85 | 1014.7 |
| 20260503070927 | 53 | 303 | 0.0 | 0.0 | 0.00 | 0.00 | 0.00 | 85 | 1014.7 |
| 20260503070424 | 53 | 349 | 0.0 | 0.0 | 0.00 | 0.00 | 0.00 | 85 | 1014.9 |
| 20260503054838 | 55 | 323 | 0.0 | 0.9 | 0.00 | 0.00 | 0.00 | 81 | 1014.7 |
| 20260503054334 | 55 | 306 | 0.0 | 0.0 | 0.00 | 0.00 | 0.00 | 81 | 1014.6 |
| 20260503053832 | 55 | 306 | 0.0 | 0.0 | 0.00 | 0.00 | 0.00 | 81 | 1014.5 |
| 20260503053330 | 55 | 306 | 0.0 | 0.9 | 0.00 | 0.00 | 0.00 | 81 | 1014.8 |
| 20260503052826 | 56 | 306 | 0.0 | 0.0 | 0.00 | 0.00 | 0.00 | 81 | 1014.6 |
| 20260503052323 | 56 | 306 | 0.0 | 0.0 | 0.00 | 0.00 | 0.00 | 81 | 1014.4 |
| 20260503051819 | 56 | 306 | 0.0 | 0.0 | 0.00 | 0.00 | 0.00 | 81 | 1014.4 |
| 20260503051316 | 56 | 306 | 0.0 | 0.9 | 0.00 | 0.00 | 0.00 | 80 | 1014.6 |
| 20260503050812 | 56 | 349 | 0.0 | 0.9 | 0.00 | 0.00 | 0.00 | 80 | 1014.5 |
| 20260503050309 | 56 | 289 | 0.0 | 0.0 | 0.00 | 0.00 | 0.00 | 80 | 1014.5 |
| 20260503045807 | 56 | 289 | 0.0 | 0.0 | 0.00 | 0.00 | 0.00 | 80 | 1014.4 |
| 20260503045305 | 56 | 272 | 0.0 | 2.6 | 0.00 | 0.00 | 0.00 | 79 | 1014.5 |
| 20260503044800 | 56 | 289 | 0.0 | 1.7 | 0.00 | 0.00 | 0.00 | 79 | 1014.2 |
| 20260503044257 | 57 | 267 | 0.0 | 2.6 | 0.00 | 0.00 | 0.00 | 78 | 1014.4 |
| 20260503043754 | 57 | 290 | 0.0 | 0.0 | 0.00 | 0.00 | 0.00 | 77 | 1014.1 |
| 20260503043251 | 57 | 282 | 0.0 | 0.9 | 0.00 | 0.00 | 0.00 | 77 | 1014.2 |
| 20260503042747 | 57 | 289 | 0.0 | 0.9 | 0.00 | 0.00 | 0.00 | 77 | 1014.0 |
| 20260503042244 | 58 | 288 | 1.7 | 2.6 | 0.00 | 0.00 | 0.00 | 77 | 1014.1 |
| 20260503041740 | 58 | 266 | 0.0 | 1.7 | 0.00 | 0.00 | 0.00 | 76 | 1013.8 |
| 20260503041238 | 58 | 237 | 1.7 | 1.7 | 0.00 | 0.00 | 0.00 | 75 | 1013.8 |
| 20260503040735 | 59 | 282 | 1.7 | 1.7 | 0.00 | 0.00 | 0.00 | 75 | 1013.8 |
| 20260503040233 | 59 | 275 | 0.0 | 1.7 | 0.00 | 0.00 | 0.00 | 74 | 1013.8 |
| 20260503035729 | 60 | 282 | 0.0 | 2.6 | 0.00 | 0.00 | 0.00 | 73 | 1013.5 |
| 20260503035227 | 60 | 282 | 0.0 | 0.0 | 0.00 | 0.00 | 0.00 | 73 | 1013.6 |
| 20260503034724 | 60 | 282 | 0.0 | 1.7 | 0.00 | 0.00 | 0.00 | 72 | 1013.3 |
| 20260503034221 | 61 | 268 | 2.6 | 2.6 | 0.00 | 0.00 | 0.00 | 72 | 1013.4 |
| 20260503033718 | 61 | 282 | 0.0 | 2.6 | 0.00 | 0.00 | 0.00 | 71 | 1013.3 |
| 20260503033216 | 62 | 252 | 0.9 | 0.9 | 0.00 | 0.00 | 0.00 | 70 | 1013.4 |
| 20260503032714 | 62 | 246 | 0.9 | 2.6 | 0.00 | 0.00 | 0.00 | 69 | 1013.3 |
| 20260503032213 | 63 | 276 | 0.0 | 2.6 | 0.00 | 0.00 | 0.00 | 69 | 1013.2 |
| 20260503031709 | 63 | 270 | 0.0 | 3.5 | 0.00 | 0.00 | 0.00 | 68 | 1013.1 |
| 20260503031208 | 64 | 263 | 0.0 | 0.0 | 0.00 | 0.00 | 0.00 | 67 | 1013.2 |
| 20260503030703 | 64 | 282 | 0.0 | 0.0 | 0.00 | 0.00 | 0.00 | 66 | 1013.0 |
| 20260503030159 | 65 | 258 | 0.0 | 0.9 | 0.00 | 0.00 | 0.00 | 66 | 1012.9 |
| 20260503025656 | 66 | 237 | 0.0 | 1.7 | 0.00 | 0.00 | 0.00 | 65 | 1012.8 |
| 20260503025154 | 66 | 258 | 0.0 | 1.7 | 0.00 | 0.00 | 0.00 | 64 | 1012.9 |
| 20260503024650 | 67 | 216 | 1.7 | 2.6 | 0.00 | 0.00 | 0.00 | 63 | 1012.8 |
| 20260503024148 | 68 | 258 | 0.0 | 4.3 | 0.00 | 0.00 | 0.00 | 62 | 1012.8 |
| 20260503023645 | 68 | 290 | 0.0 | 0.0 | 0.00 | 0.00 | 0.00 | 63 | 1012.6 |
| 20260503023141 | 69 | 261 | 0.0 | 0.9 | 0.00 | 0.00 | 0.00 | 62 | 1012.8 |
| 20260503022637 | 69 | 274 | 0.0 | 1.7 | 0.00 | 0.00 | 0.00 | 62 | 1012.5 |
| 20260503022132 | 69 | 263 | 0.9 | 2.6 | 0.00 | 0.00 | 0.00 | 62 | 1012.7 |
| 20260503021629 | 69 | 272 | 2.6 | 4.3 | 0.00 | 0.00 | 0.00 | 61 | 1012.6 |
| 20260503021126 | 69 | 237 | 2.6 | 3.5 | 0.00 | 0.00 | 0.00 | 61 | 1012.5 |
| 20260503020623 | 70 | 208 | 0.9 | 3.5 | 0.00 | 0.00 | 0.00 | 60 | 1012.6 |
| 20260503020120 | 71 | 197 | 0.0 | 3.5 | 0.00 | 0.00 | 0.00 | 60 | 1012.4 |
| 20260503015617 | 71 | 237 | 0.0 | 3.5 | 0.00 | 0.00 | 0.00 | 60 | 1012.5 |
| 20260503015114 | 71 | 227 | 0.0 | 5.2 | 0.00 | 0.00 | 0.00 | 59 | 1012.4 |
| 20260503014609 | 72 | 245 | 2.6 | 4.3 | 0.00 | 0.00 | 0.00 | 58 | 1012.5 |
| 20260503014107 | 73 | 192 | 1.7 | 3.5 | 0.00 | 0.00 | 0.00 | 59 | 1012.4 |
| 20260503013604 | 73 | 282 | 3.5 | 3.5 | 0.00 | 0.00 | 0.00 | 58 | 1012.5 |
| 20260503013103 | 73 | 271 | 1.7 | 5.2 | 0.00 | 0.00 | 0.00 | 58 | 1012.4 |
| 20260503012600 | 74 | 213 | 0.0 | 3.5 | 0.00 | 0.00 | 0.00 | 58 | 1012.7 |
| 20260503012056 | 74 | 251 | 2.6 | 2.6 | 0.00 | 0.00 | 0.00 | 58 | 1012.4 |
| 20260503011552 | 75 | 206 | 0.9 | 2.6 | 0.00 | 0.00 | 0.00 | 56 | 1012.4 |
| 20260503011050 | 75 | 282 | 0.0 | 3.5 | 0.00 | 0.00 | 0.00 | 57 | 1012.7 |
| 20260503010546 | 75 | 266 | 0.0 | 2.6 | 0.00 | 0.00 | 0.00 | 57 | 1012.6 |
| 20260503010044 | 76 | 232 | 0.9 | 3.5 | 0.00 | 0.00 | 0.00 | 56 | 1012.6 |
| 20260503005540 | 76 | 255 | 0.0 | 3.5 | 0.00 | 0.00 | 0.00 | 55 | 1012.6 |
| 20260503005038 | 77 | 218 | 1.7 | 4.3 | 0.00 | 0.00 | 0.00 | 55 | 1012.6 |
| 20260503004534 | 77 | 218 | 1.7 | 2.6 | 0.00 | 0.00 | 0.00 | 56 | 1012.7 |
| 20260503004032 | 77 | 225 | 1.7 | 4.3 | 0.00 | 0.00 | 0.00 | 55 | 1012.6 |